Terminal Aerodrome Forecast
Issued by NWS

Home | Current Version | Previous Version | Text Only | Print | Product List | Glossary On
Versions: 1 2 3 4 5 6 7 8 9 10 11 12 13 14 15 16 17 18 19 20 21
000
FTUS46 KPDT 011100
TAFYKM
TAF
KYKM 011131Z 0112/0212 27005KT 5SM BR SCT005 OVC019
     FM011800 VRB03KT 6SM -SHRA BR OVC020
     FM020000 30005KT 6SM BR BKN020 OVC050
     FM020600 30005KT 6SM BR SCT250=

USA.gov is the U.S. government's official web portal to all federal, state and local government web resources and services.